Wooster, OH

2:49 AM EST on December 10, 2019 (GMT -0500)
Wayne County

Weather History for KBJJ - October, 2019

Change the Weather History Date:

Saturday, October 5, 2019

  Actual Average Record
Temperature  
Mean Temperature 54 °F -  
Max Temperature 66 °F 65 °F 86 °F (2007)
Min Temperature 41 °F 40 °F 32 °F (2003)
Degree Days  
Heating Degree Days 12    
Growing Degree Days 4 (Base 50)    
Moisture  
Dew Point 45 °F    
Average Humidity 76    
Maximum Humidity 93    
Minimum Humidity 54    
Precipitation  
Precipitation 0.00 in - - ()
Sea Level Pressure  
Sea Level Pressure 30.20 in    
Wind  
Wind Speed 6 mph (ESE)    
Max Wind Speed 10 mph    
Max Gust Speed -    
Visibility 10 miles    
Events      
Averages and records for this station are not official NWS values.
T = Trace of Precipitation, MM = Missing Value Source: NWS Daily Summary

Daily Weather History Graph

Daily Weather History Graph

Search for Another Location

Airport or City:

Astronomy

Oct. 05, 2019 Rise Set
Actual Time 7:28 AM EDT 7:03 PM EDT
Civil Twilight 7:00 AM EDT 7:30 PM EDT
Nautical Twilight 6:28 AM EDT 8:02 PM EDT
Astronomical Twilight 5:56 AM EDT 8:34 PM EDT
Moon 2:54 PM EDT (10/5) No Moon Set
Length of Visible Light 12h 30m
Length of Day
11h 35m
Waxing Crescent, 50% of the Moon is Illuminated
Oct 5
Waxing Crescent
Oct 5
First Quarter
Oct 13
Full
Oct 21
Last Quarter
Oct 27
New

Hourly Weather History & Observations

Time (EDT) Temp. Windchill Dew Point Humidity Pressure Visibility Wind Dir Wind Speed Gust Speed Precip Events Conditions
12:20 AM 50.0 °F - 41.0 °F 71% 30.35 in 10.0 mi East 6.9 mph - N/A   Overcast
12:56 AM 48.9 °F - 39.9 °F 71% 30.35 in 10.0 mi East 6.9 mph - N/A   Overcast
1:56 AM 46.9 °F - 41.0 °F 80% 30.33 in 10.0 mi East 5.8 mph - N/A   Scattered Clouds
2:56 AM 45.0 °F 43.5 °F 39.9 °F 82% 30.33 in 10.0 mi ENE 3.5 mph - N/A   Clear
3:56 AM 43.0 °F 40.3 °F 39.9 °F 89% 30.32 in 10.0 mi ENE 4.6 mph - N/A   Clear
4:56 AM 43.0 °F 38.2 °F 39.9 °F 89% 30.31 in 10.0 mi East 8.1 mph - N/A   Clear
5:56 AM 42.1 °F 38.4 °F 39.9 °F 92% 30.29 in 10.0 mi East 5.8 mph - N/A   Clear
6:56 AM 41.0 °F 37.1 °F 39.0 °F 93% 30.29 in 10.0 mi East 5.8 mph - N/A   Clear
7:56 AM 42.1 °F 38.4 °F 39.0 °F 89% 30.28 in 10.0 mi East 5.8 mph - N/A   Clear
8:56 AM 45.0 °F 40.1 °F 39.9 °F 82% 30.27 in 10.0 mi ESE 9.2 mph - N/A   Clear
9:56 AM 48.9 °F - 41.0 °F 74% 30.27 in 10.0 mi East 9.2 mph - N/A   Clear
10:56 AM 53.1 °F - 42.1 °F 66% 30.25 in 10.0 mi SE 8.1 mph - N/A   Clear
11:56 AM 55.9 °F - 44.1 °F 64% 30.23 in 10.0 mi SE 5.8 mph - N/A   Clear
12:56 PM 59.0 °F - 45.0 °F 60% 30.21 in 10.0 mi ESE 6.9 mph - N/A   Clear
1:56 PM 61.0 °F - 46.0 °F 58% 30.17 in 10.0 mi ESE 6.9 mph - N/A   Clear
2:56 PM 64.0 °F - 48.0 °F 56% 30.13 in 10.0 mi ESE 9.2 mph - N/A   Clear
3:56 PM 66.0 °F - 48.9 °F 54% 30.11 in 10.0 mi SE 8.1 mph - N/A   Clear
4:56 PM 64.9 °F - 48.9 °F 56% 30.10 in 10.0 mi SE 6.9 mph - N/A   Clear
5:56 PM 66.0 °F - 50.0 °F 56% 30.08 in 10.0 mi SE 10.4 mph - N/A   Clear
6:56 PM 62.1 °F - 50.0 °F 65% 30.06 in 10.0 mi SE 4.6 mph - N/A   Clear
7:56 PM 54.0 °F - 52.0 °F 93% 30.06 in 10.0 mi Calm Calm - N/A   Clear
8:56 PM 53.1 °F - 51.1 °F 93% 30.05 in 10.0 mi Calm Calm - N/A   Clear
9:56 PM 53.1 °F - 51.1 °F 93% 30.05 in 10.0 mi SE 5.8 mph - N/A   Clear
10:56 PM 55.9 °F - 51.1 °F 84% 30.04 in 10.0 mi SSE 4.6 mph - N/A   Clear
11:56 PM 55.9 °F - 51.1 °F 84% 30.04 in 10.0 mi SSE 5.8 mph - N/A   Clear